Temp
77 83 86 84 74 75 64 65 72 69 70 74 75 74 73 72 70 66 78 79 82 82 82 79 74 75 75 75 75 75 75 76 76 76 75 75 75 75 75 75 75 76 75 76 76 75 74 73 73
84 82 85 83 71 65 66 69 67 72 73 75 74 72 72 68 73 72 75 78 83 82 82 82 72 75 74 74 75 75 75 76 76 75 75 75 75 75 75 75 75 75 75 75 75 74 74 73 73
83 84 81 77 72 67 66 69 72 72 73 74 71 74 73 69 73 77 79 80 82 82 82 80 72 74 74 74 74 74 75 75 75 75 75 75 75 75 74 75 75 74 74 74 75 74 73 73 73
83 84 82 72 66 68 71 74 74 71 71 73 75 70 73 76 77 80 81 81 82 81 81 74 73 74 74 74 74 74 75 75 75 75 75 75 75 74 74 74 74 74 73 73 73 73 73 72 72
86 82 71 67 65 68 72 76 76 72 73 73 74 68 70 75 78 80 80 81 81 80 81 79 72 73 73 73 74 74 74 75 75 75 75 75 74 74 74 73 73 73 73 73 72 72 71 71 71
77 79 67 63 65 68 73 76 76 74 74 72 72 73 72 77 77 79 81 82 83 80 79 79 70 70 72 72 73 73 74 74 74 74 74 75 74 74 73 73 73 73 73 73 72 71 71 70 70
74 72 67 67 66 67 71 76 75 74 74 73 78 71 72 74 78 80 81 82 82 82 79 79 79 74 67 69 70 71 72 73 73 73 73 73 73 73 73 72 73 73 73 72 72 71 70 70 70
78 75 64 67 66 66 73 74 75 76 73 75 76 73 71 77 78 80 81 81 81 80 80 80 80 79 79 78 66 67 69 70 71 70 69 68 69 70 70 69 71 73 73 72 72 71 70 70 70
74 69 65 64 67 68 73 72 73 75 74 74 74 75 75 79 77 76 76 77 78 78 79 80 80 79 79 79 75 65 65 67 67 68 66 67 78 78 76 71 68 70 71 71 71 71 70 69 68
71 68 67 71 73 72 72 75 73 73 72 73 73 73 76 76 73 69 69 70 74 75 78 79 79 79 79 78 78 77 78 78 78 78 78 78 79 78 76 68 64 66 67 69 70 70 68 66 77
68 66 67 67 70 75 72 72 76 74 70 77 76 74 73 74 73 72 73 74 74 78 78 78 79 79 79 78 79 79 78 78 78 77 77 78 77 77 76 77 76 75 65 76 74 74 75 76 76
65 67 67 67 68 70 70 74 72 75 76 77 80 79 75 74 74 75 75 76 76 76 78 79 79 78 78 79 78 79 78 78 77 77 77 76 76 75 76 76 76 75 77 75 76 76 75 75 75
65 65 67 66 68 70 70 70 73 72 75 75 77 74 75 76 76 77 78 78 77 76 78 79 79 79 79 77 79 78 78 78 78 78 77 77 76 75 76 76 76 76 76 76 75 75 75 74 74
63 64 65 67 67 68 68 67 69 75 76 74 73 75 77 76 77 76 74 75 76 77 78 80 79 79 80 78 78 78 79 79 78 78 78 76 76 76 76 76 75 76 76 77 76 75 75 74 74
64 61 65 66 67 66 70 64 66 72 73 74 74 77 76 76 76 76 78 78 79 79 79 78 79 80 79 79 79 78 79 78 78 78 78 77 76 76 76 76 76 76 77 74 75 74 71 72 73
59 61 57 62 64 64 67 61 70 71 72 74 74 76 75 76 76 78 79 79 81 80 78 79 77 77 78 79 79 79 79 79 78 78 78 76 75 76 76 75 75 77 76 75 74 73 70 66 66
55 53 54 58 62 61 63 62 63 67 68 72 74 76 74 76 76 78 79 79 79 80 80 78 78 77 77 77 78 78 78 77 78 78 77 77 76 75 75 75 75 76 75 74 73 72 72 71 66
49 52 53 56 58 58 57 60 65 64 65 71 72 73 72 73 76 80 81 80 79 79 79 79 78 77 77 77 76 76 76 76 77 77 77 76 76 75 74 74 74 74 72 71 72 72 74 72 70
54 52 53 55 56 56 56 58 63 66 63 66 70 71 72 73 78 80 79 78 77 76 76 76 76 75 73 72 71 72 72 74 73 73 73 74 75 74 72 72 72 72 68 70 72 72 70 70 72
53 51 49 53 54 55 54 54 60 62 62 65 67 70 71 72 75 77 78 77 76 75 74 72 72 73 71 73 73 73 74 74 74 71 71 72 71 71 69 65 65 65 64 67 69 70 68 68 70
51 50 50 51 52 53 53 55 56 61 61 63 64 67 70 71 71 73 74 73 74 73 72 70 70 70 70 69 68 67 68 68 68 70 71 70 68 68 66 66 65 65 64 64 66 69 67 66 69
46 52 51 49 48 45 53 45 55 57 59 60 65 67 68 68 69 69 68 70 72 70 70 67 67 66 65 65 65 66 67 67 69 68 67 66 64 64 64 62 62 62 64 63 64 64 65 66 66
49 52 51 49 47 45 48 44 53 52 54 60 65 62 63 64 64 65 65 63 64 62 63 64 63 61 61 62 62 63 64 65 66 65 64 63 63 62 61 58 58 59 59 60 60 61 61 62 62
52 49 48 47 45 35 46 45 51 53 57 59 59 61 62 62 62 63 62 60 61 59 59 60 60 60 59 59 60 60 61 63 63 64 62 63 63 62 59 56 55 56 57 59 62 62 60 62 62
50 47 34 32 32 35 42 40 50 56 59 59 59 61 63 62 62 60 60 60 58 57 56 57 57 59 59 59 59 59 59 60 61 62 63 62 62 61 60 55 57 60 60 61 60 58 58 59 59
44 46 39 30 32 40 39 38 49 58 63 58 58 60 60 61 61 60 58 58 57 54 54 55 56 57 57 57 57 57 57 58 59 59 60 60 60 61 59 57 58 58 58 58 58 57 57 57 54
42 39 48 37 30 36 45 46 52 56 56 57 58 57 59 60 60 60 60 61 59 57 56 55 56 56 55 56 55 55 55 55 55 56 56 57 56 56 54 54 54 55 54 54 55 54 54 53 54
46 50 37 38 28 29 40 39 46 49 54 56 58 59 59 59 60 60 61 60 60 58 57 57 57 56 57 56 56 55 55 54 54 54 53 54 54 52 51 51 51 51 51 51 51 51 51 50 51
43 41 43 43 38 32 31 39 52 56 57 57 59 59 61 61 61 61 60 60 60 58 56 57 56 55 55 55 55 53 52 52 52 51 52 52 52 51 50 50 49 49 49 49 49 49 49 47 48
49 45 45 35 31 36 35 39 52 53 54 53 56 56 58 60 62 61 60 61 60 59 58 57 57 55 55 55 53 52 52 51 50 50 50 50 49 49 48 48 47 47 47 48 47 47 46 46 45
MSLP
1013.67 1013.36 1013.20 1012.52 1012.07 1011.09 1011.46 1012.34 1012.79 1013.02 1013.49 1014.15 1014.39 1014.43 1014.27 1014.99 1015.18 1016.14 1017.22 1017.55 1017.54 1018.20 1018.82 1019.63 1020.08 1020.30 1020.47 1020.57 1020.77 1020.96 1021.07 1021.20 1021.31 1021.39 1021.48 1021.58 1021.65 1021.71 1021.75 1021.80 1021.79 1021.70 1021.68 1021.61 1021.74 1022.00 1022.06 1022.12 1022.11
1013.18 1013.30 1012.68 1011.67 1010.90 1010.45 1011.29 1012.35 1012.77 1013.14 1013.82 1014.47 1014.85 1014.97 1014.90 1015.31 1016.07 1016.70 1017.32 1017.86 1017.75 1018.34 1018.91 1019.38 1020.22 1020.45 1020.68 1020.78 1020.88 1021.03 1021.15 1021.33 1021.50 1021.64 1021.75 1021.84 1021.92 1021.96 1022.02 1022.04 1022.03 1021.99 1021.92 1021.96 1022.01 1022.25 1022.35 1022.37 1022.35
1013.03 1012.84 1011.69 1011.04 1010.63 1010.26 1011.03 1012.27 1012.89 1013.74 1014.38 1014.46 1014.83 1015.30 1015.32 1015.65 1016.42 1016.60 1017.24 1017.73 1017.92 1018.48 1018.98 1019.63 1020.36 1020.59 1020.86 1021.04 1021.06 1021.10 1021.26 1021.42 1021.58 1021.75 1021.90 1022.02 1022.11 1022.14 1022.22 1022.22 1022.23 1022.29 1022.38 1022.37 1022.19 1022.31 1022.52 1022.59 1022.63
1012.59 1012.30 1011.95 1011.07 1010.60 1011.29 1011.35 1012.19 1013.06 1013.89 1014.52 1014.82 1014.71 1015.13 1015.99 1016.40 1016.42 1016.79 1017.44 1017.83 1018.04 1018.56 1019.11 1020.08 1020.45 1020.65 1020.88 1021.09 1021.11 1021.07 1021.20 1021.45 1021.63 1021.83 1021.97 1022.07 1022.21 1022.30 1022.34 1022.38 1022.42 1022.48 1022.63 1022.64 1022.56 1022.50 1022.57 1022.68 1022.76
1012.28 1011.64 1011.15 1011.16 1011.41 1011.79 1012.25 1012.56 1013.04 1013.48 1013.94 1014.45 1014.91 1015.30 1015.79 1016.63 1016.96 1017.19 1017.55 1017.86 1018.20 1018.74 1019.21 1019.89 1020.43 1020.67 1020.84 1021.02 1021.10 1021.16 1021.28 1021.45 1021.65 1021.83 1021.96 1022.07 1022.25 1022.36 1022.44 1022.52 1022.58 1022.64 1022.69 1022.72 1022.74 1022.68 1022.70 1022.73 1022.83
1011.74 1011.46 1010.86 1010.99 1011.64 1012.30 1012.65 1013.02 1013.18 1013.35 1013.91 1014.62 1014.82 1015.08 1015.84 1016.70 1017.01 1017.26 1017.54 1017.85 1018.24 1018.85 1019.35 1019.76 1020.41 1020.61 1020.79 1020.95 1021.08 1021.18 1021.31 1021.44 1021.60 1021.73 1021.81 1021.93 1022.14 1022.31 1022.40 1022.46 1022.55 1022.63 1022.68 1022.69 1022.78 1022.84 1022.85 1022.84 1022.86
1011.38 1011.18 1010.82 1011.14 1011.76 1012.29 1012.60 1013.42 1013.30 1013.30 1013.78 1014.35 1014.70 1014.83 1016.04 1016.72 1017.02 1017.42 1017.55 1017.75 1018.19 1018.67 1019.19 1019.54 1019.93 1020.41 1020.77 1020.92 1021.04 1021.21 1021.31 1021.49 1021.59 1021.66 1021.71 1021.72 1021.90 1022.14 1022.26 1022.34 1022.42 1022.49 1022.56 1022.59 1022.63 1022.74 1022.80 1022.82 1022.82
1012.10 1011.53 1011.42 1011.36 1011.60 1012.07 1012.83 1013.39 1013.59 1013.40 1013.93 1014.93 1015.14 1014.65 1015.41 1016.17 1017.15 1017.50 1017.73 1017.99 1018.25 1018.48 1018.87 1019.12 1019.60 1019.98 1020.19 1020.51 1020.98 1021.09 1021.30 1021.47 1021.60 1021.68 1021.67 1021.57 1021.82 1021.97 1022.12 1022.24 1022.31 1022.33 1022.36 1022.43 1022.50 1022.58 1022.64 1022.66 1022.65
1012.73 1011.67 1011.26 1011.55 1011.63 1012.21 1013.10 1013.21 1013.92 1014.28 1014.15 1014.65 1015.10 1015.23 1015.84 1016.32 1017.32 1017.66 1017.89 1018.00 1018.34 1018.64 1018.84 1018.99 1019.26 1019.70 1019.95 1020.17 1020.49 1021.03 1021.17 1021.32 1021.51 1021.58 1021.62 1021.68 1021.39 1021.48 1021.68 1021.80 1022.03 1022.21 1022.26 1022.26 1022.31 1022.37 1022.42 1022.47 1022.48
1012.72 1011.93 1011.68 1011.92 1011.98 1012.08 1013.00 1013.03 1013.66 1014.03 1014.17 1014.30 1014.87 1015.75 1016.18 1016.87 1017.47 1017.74 1017.94 1018.02 1018.26 1018.57 1018.81 1018.93 1019.26 1019.50 1019.86 1020.16 1020.33 1020.57 1020.59 1020.76 1020.81 1020.90 1020.95 1021.12 1021.11 1021.21 1021.38 1021.58 1021.98 1022.06 1022.10 1022.12 1022.13 1022.15 1022.18 1022.28 1021.65
1013.16 1012.79 1012.87 1012.77 1012.74 1012.65 1012.95 1013.31 1013.63 1013.73 1013.85 1013.63 1013.94 1015.17 1016.12 1016.74 1017.38 1017.67 1017.72 1017.83 1018.04 1018.13 1018.55 1018.90 1019.09 1019.35 1019.59 1019.79 1019.96 1020.17 1020.32 1020.40 1020.47 1020.58 1020.70 1020.79 1020.94 1021.07 1021.23 1021.17 1021.30 1021.39 1021.60 1021.43 1021.50 1021.52 1021.52 1021.26 1021.26
1013.57 1013.91 1013.77 1013.55 1013.41 1013.26 1013.29 1013.44 1013.55 1013.59 1013.73 1014.19 1014.12 1014.89 1015.79 1016.31 1016.76 1017.02 1017.32 1017.48 1017.73 1017.87 1018.13 1018.53 1018.81 1019.19 1019.42 1019.57 1019.75 1019.76 1019.94 1020.14 1020.20 1020.26 1020.45 1020.56 1020.62 1020.70 1020.76 1020.74 1020.77 1020.95 1020.85 1020.86 1020.94 1020.89 1020.98 1021.06 1021.10
1014.37 1014.56 1014.39 1014.29 1013.92 1013.62 1013.93 1013.80 1013.48 1013.73 1014.10 1014.49 1014.68 1015.24 1015.62 1015.99 1016.40 1016.80 1017.13 1017.43 1017.64 1017.67 1017.80 1018.12 1018.37 1018.64 1018.94 1019.30 1019.37 1019.54 1019.63 1019.79 1019.81 1019.93 1020.08 1020.21 1020.20 1020.23 1020.26 1020.31 1020.40 1020.44 1020.46 1020.47 1020.46 1020.49 1020.53 1020.58 1020.63
1015.48 1015.16 1014.88 1014.63 1014.41 1014.15 1014.13 1014.44 1014.29 1013.80 1014.25 1014.42 1014.74 1014.94 1015.38 1015.73 1016.19 1016.69 1016.99 1017.06 1017.40 1017.54 1017.61 1017.82 1018.10 1018.27 1018.44 1018.67 1018.87 1018.97 1019.18 1019.28 1019.46 1019.47 1019.51 1019.78 1019.78 1019.78 1019.79 1019.87 1019.94 1019.95 1020.02 1020.00 1020.02 1019.98 1020.06 1020.08 1020.11
1015.85 1015.33 1014.96 1014.95 1014.84 1014.64 1014.43 1014.62 1014.17 1014.20 1014.36 1014.31 1014.50 1014.74 1015.20 1015.63 1016.06 1016.06 1016.28 1016.54 1016.85 1017.08 1017.38 1017.54 1017.76 1017.82 1018.04 1018.21 1018.34 1018.55 1018.54 1018.82 1018.87 1018.90 1019.08 1019.25 1019.35 1019.30 1019.39 1019.33 1019.30 1019.27 1019.39 1019.61 1019.60 1019.66 1019.84 1019.73 1019.61
1016.27 1015.78 1015.25 1015.43 1015.14 1015.27 1015.03 1014.19 1014.03 1014.63 1014.64 1014.19 1014.43 1014.60 1014.87 1015.25 1015.62 1015.87 1016.11 1016.24 1016.40 1016.73 1016.95 1017.24 1017.51 1017.61 1017.64 1017.65 1017.80 1017.98 1018.12 1018.21 1018.18 1018.33 1018.51 1018.69 1018.84 1018.90 1018.88 1018.87 1018.71 1018.68 1018.81 1018.95 1018.97 1019.17 1019.34 1019.46 1019.53
1016.54 1015.68 1015.75 1015.73 1015.77 1015.86 1015.60 1014.76 1015.07 1015.11 1015.02 1014.52 1014.54 1014.65 1014.95 1015.12 1015.47 1015.54 1015.57 1015.97 1016.19 1016.30 1016.46 1016.72 1017.04 1017.16 1017.23 1017.22 1017.41 1017.56 1017.70 1017.85 1017.79 1017.84 1017.95 1018.05 1018.27 1018.39 1018.41 1018.21 1018.13 1018.21 1018.25 1018.25 1018.41 1018.51 1018.63 1018.64 1018.74
1016.46 1016.32 1016.56 1016.18 1016.63 1016.67 1016.26 1015.36 1015.40 1015.74 1015.54 1015.08 1014.91 1015.00 1015.10 1014.98 1014.81 1014.87 1014.98 1015.43 1015.70 1015.99 1016.15 1016.25 1016.47 1016.64 1016.82 1017.00 1017.11 1017.13 1017.28 1017.24 1017.30 1017.39 1017.40 1017.55 1017.58 1017.73 1017.80 1017.69 1017.62 1017.72 1017.80 1017.75 1017.77 1017.81 1017.78 1017.96 1018.02
1016.88 1016.94 1016.71 1016.69 1017.26 1017.20 1016.52 1016.11 1015.65 1016.06 1016.17 1015.75 1015.24 1015.16 1015.00 1014.76 1014.49 1014.58 1014.80 1015.19 1015.44 1015.64 1015.74 1015.89 1016.06 1016.23 1016.62 1016.87 1016.94 1016.87 1016.64 1016.81 1017.08 1017.29 1017.42 1017.40 1017.29 1017.31 1017.38 1017.31 1017.37 1017.41 1017.56 1017.37 1017.22 1017.15 1017.24 1017.27 1017.53
1017.31 1017.52 1017.72 1017.88 1017.84 1017.91 1017.16 1016.53 1015.94 1016.08 1015.94 1015.77 1015.49 1015.15 1014.92 1014.68 1014.15 1014.28 1014.63 1014.93 1015.04 1015.29 1015.55 1015.81 1015.91 1016.02 1016.31 1016.38 1016.46 1016.58 1016.54 1016.63 1016.70 1016.93 1017.10 1017.20 1017.24 1017.30 1017.39 1017.56 1017.58 1017.55 1017.44 1017.14 1016.89 1016.80 1016.82 1016.91 1016.98
1017.87 1017.73 1018.08 1018.28 1018.37 1018.42 1017.76 1016.10 1015.82 1015.56 1015.70 1015.51 1015.46 1015.03 1014.71 1014.60 1014.66 1014.57 1014.83 1015.04 1015.06 1014.99 1015.33 1015.64 1015.88 1016.07 1016.32 1016.67 1016.85 1016.93 1016.98 1016.97 1016.83 1016.76 1016.77 1016.82 1017.22 1017.30 1017.53 1017.31 1017.13 1017.08 1017.09 1016.84 1016.58 1016.40 1016.41 1016.26 1016.11
1018.20 1018.65 1018.73 1018.85 1018.93 1018.30 1018.18 1015.76 1015.30 1015.47 1015.37 1015.37 1014.74 1014.54 1014.87 1015.16 1015.24 1015.18 1015.22 1015.07 1015.04 1015.29 1015.39 1015.79 1015.97 1016.30 1016.61 1016.90 1016.88 1016.78 1016.69 1016.56 1016.55 1016.75 1017.02 1017.17 1017.42 1017.41 1017.42 1017.42 1017.22 1017.00 1016.76 1016.57 1016.43 1016.40 1016.32 1016.23 1015.84
1018.69 1019.22 1019.11 1019.25 1019.07 1018.98 1018.20 1017.74 1015.07 1015.63 1015.21 1014.66 1014.36 1015.01 1015.34 1015.70 1015.77 1015.51 1015.55 1015.80 1015.87 1015.85 1015.80 1015.92 1016.32 1016.67 1017.01 1017.08 1017.17 1017.10 1017.00 1016.92 1016.87 1016.98 1017.03 1017.18 1017.28 1017.33 1017.40 1017.43 1017.32 1017.14 1016.87 1016.68 1016.58 1016.46 1016.35 1016.30 1016.06
1019.36 1019.67 1019.93 1019.99 1019.72 1018.96 1018.11 1017.63 1014.79 1014.98 1014.66 1014.70 1015.16 1015.30 1015.41 1015.82 1016.03 1015.98 1015.93 1016.29 1016.21 1016.23 1016.22 1016.34 1016.54 1016.82 1017.19 1017.36 1017.35 1017.28 1017.23 1017.12 1016.99 1016.95 1017.02 1017.02 1017.06 1017.10 1017.21 1017.40 1017.37 1017.13 1016.88 1016.59 1016.42 1016.40 1016.29 1016.08 1015.87
1019.39 1019.52 1020.20 1020.52 1020.09 1018.35 1018.46 1017.84 1015.09 1014.86 1014.61 1015.03 1015.59 1015.40 1015.26 1015.87 1016.18 1016.25 1016.10 1016.24 1016.51 1016.62 1016.65 1016.66 1016.85 1016.95 1017.21 1017.34 1017.36 1017.41 1017.46 1017.44 1017.24 1016.97 1016.85 1016.84 1016.83 1016.94 1017.04 1017.30 1017.10 1016.90 1016.64 1016.47 1016.43 1016.45 1016.27 1016.12 1015.90
1019.39 1018.98 1018.80 1018.90 1018.83 1018.35 1019.04 1016.68 1014.85 1014.61 1014.63 1015.39 1015.88 1015.76 1015.64 1016.01 1016.30 1016.36 1016.40 1016.34 1016.57 1016.78 1016.90 1016.86 1016.93 1017.12 1017.40 1017.47 1017.57 1017.55 1017.51 1017.39 1017.27 1017.27 1017.15 1017.00 1016.89 1016.82 1016.91 1016.87 1016.74 1016.68 1016.63 1016.46 1016.46 1016.46 1016.31 1016.40 1016.23
1019.54 1019.48 1019.38 1019.32 1019.72 1019.08 1017.34 1016.24 1015.41 1014.80 1014.81 1015.30 1015.34 1015.58 1015.82 1016.05 1016.10 1016.20 1016.35 1016.22 1016.59 1016.67 1016.68 1016.86 1016.84 1016.88 1017.04 1017.37 1017.38 1017.42 1017.57 1017.64 1017.45 1017.30 1017.33 1017.09 1016.97 1016.95 1016.98 1016.99 1016.82 1016.77 1016.85 1016.75 1016.59 1016.43 1016.34 1016.35 1016.13
1019.05 1019.01 1019.18 1019.56 1019.42 1018.69 1016.80 1015.95 1014.62 1014.86 1014.56 1014.97 1015.26 1015.64 1015.93 1016.04 1015.83 1016.00 1016.25 1016.24 1016.57 1016.72 1016.70 1016.70 1016.91 1016.78 1016.94 1017.21 1017.26 1017.40 1017.36 1017.30 1017.33 1017.39 1017.17 1017.16 1017.05 1017.02 1016.98 1016.96 1016.94 1016.82 1016.75 1016.78 1016.73 1016.45 1016.38 1016.26 1016.10
1019.37 1019.08 1019.10 1019.36 1019.34 1018.40 1017.26 1015.10 1014.48 1014.32 1014.55 1014.81 1015.27 1015.42 1015.39 1015.86 1015.85 1015.89 1016.17 1016.31 1016.62 1016.82 1016.79 1016.66 1016.82 1016.64 1016.84 1017.03 1017.14 1017.15 1017.06 1017.17 1017.24 1017.22 1017.12 1017.14 1017.07 1017.03 1016.82 1016.72 1016.69 1016.68 1016.61 1016.52 1016.55 1016.40 1016.46 1016.42 1016.29
1018.97 1018.95 1018.93 1018.91 1019.15 1018.65 1017.65 1015.00 1014.77 1014.89 1014.47 1014.93 1015.40 1016.11 1015.82 1015.49 1015.45 1015.63 1016.32 1016.47 1016.38 1016.38 1016.45 1016.26 1016.37 1016.46 1016.70 1016.81 1016.95 1016.87 1017.00 1017.11 1017.15 1016.95 1016.88 1016.98 1016.80 1016.83 1016.76 1016.61 1016.42 1016.36 1016.33 1016.30 1016.24 1016.07 1016.24 1016.39 1016.35
Wind_Speed
8 11 5 5 5 3 5 5 0 8 8 3 4 3 2 4 3 4 6 6 11 14 12 12 9 10 9 9 10 10 10 10 9 9 7 7 6 6 7 7 8 7 9 9 12 8 10 10 10
9 5 4 2 4 5 6 5 8 6 5 10 7 6 3 4 3 8 10 6 14 13 12 11 10 9 9 6 9 10 10 9 9 8 7 6 5 4 5 6 7 7 7 8 9 8 8 9 9
8 3 3 3 2 2 5 8 9 11 9 5 5 2 2 5 4 11 5 11 14 13 10 10 9 9 9 6 5 9 11 10 9 6 5 5 5 5 5 4 7 7 6 5 4 8 7 8 8
4 4 3 6 5 3 3 12 9 12 3 4 3 6 4 2 11 4 11 13 14 12 10 12 9 9 8 6 5 7 11 10 7 6 5 6 5 6 5 3 5 5 5 4 6 6 7 7 7
2 2 3 3 3 4 3 10 16 11 7 8 5 6 7 6 5 9 13 12 13 12 10 12 9 8 8 7 5 4 9 8 7 7 6 6 6 5 5 4 4 4 2 3 4 5 5 6 4
4 2 6 7 5 4 7 10 10 6 5 6 5 9 6 6 9 12 13 13 12 11 10 10 9 8 8 8 8 6 7 8 8 7 9 9 8 7 6 6 4 4 3 1 2 2 2 2 2
3 4 5 6 9 8 8 9 9 7 7 5 7 6 5 9 9 12 13 13 13 12 11 10 10 9 6 7 8 7 6 7 6 6 5 9 9 9 7 6 6 5 4 3 4 3 2 2 2
1 2 7 6 12 7 11 11 3 7 7 5 1 4 7 12 13 13 12 12 12 12 12 11 10 10 9 9 7 7 7 6 6 6 6 7 7 7 8 6 7 7 7 6 6 6 5 5 4
2 5 8 9 13 9 12 10 4 1 8 3 3 0 2 16 16 13 11 11 11 10 11 11 11 10 9 8 8 7 7 6 6 7 7 5 7 7 8 7 3 8 7 7 8 8 8 7 6
3 5 8 5 7 12 16 11 12 7 8 5 6 5 11 16 15 14 13 12 11 12 11 10 10 10 9 6 7 8 7 8 8 8 8 8 7 6 5 4 6 7 8 8 8 7 8 7 6
3 1 3 4 3 9 15 9 8 6 7 6 10 12 15 16 14 13 13 12 13 11 9 10 10 9 9 7 5 5 5 5 6 9 8 7 6 6 6 5 5 7 8 8 8 8 8 8 6
2 3 3 2 4 8 12 11 8 9 3 3 4 13 17 17 16 15 14 12 11 11 11 10 11 9 9 6 6 6 5 5 5 7 9 7 5 6 6 5 6 6 5 7 7 6 8 8 8
3 3 3 3 4 7 9 7 7 9 3 1 7 12 15 14 14 12 10 10 10 11 10 11 11 11 9 9 6 6 6 6 7 7 8 7 7 7 6 6 6 6 6 7 7 7 7 8 9
3 2 2 2 4 5 8 3 3 7 6 5 9 13 14 13 13 10 11 12 11 10 10 10 11 11 10 10 10 8 7 8 7 7 8 10 8 7 7 7 7 7 7 7 7 8 7 7 8
2 1 1 2 2 3 4 3 9 3 7 7 8 9 10 12 11 14 13 13 11 11 9 11 11 11 12 12 10 9 8 8 8 8 10 10 10 10 9 8 8 8 7 9 8 8 7 7 7
2 1 4 2 1 3 4 14 8 4 6 8 7 9 10 12 13 12 12 12 11 10 11 10 9 11 12 12 10 8 8 8 8 8 8 10 11 11 10 9 9 9 8 8 8 8 8 7 7
1 6 4 1 3 2 4 6 3 1 4 6 6 6 6 8 10 12 13 13 11 12 12 12 10 12 12 11 10 10 10 8 8 8 8 10 11 12 11 10 10 10 8 9 8 9 9 9 8
7 8 4 6 5 1 1 11 3 5 3 7 7 7 7 9 12 12 12 10 11 11 12 12 10 12 11 8 7 7 7 8 8 8 8 10 9 11 10 10 11 10 9 9 9 11 10 9 9
3 2 5 1 3 3 5 11 13 4 6 9 10 9 9 11 13 12 11 10 10 11 12 12 12 11 7 6 6 7 8 7 7 6 8 9 9 9 10 8 9 9 10 11 12 11 11 9 9
8 7 5 2 2 3 3 9 13 10 9 10 11 13 14 15 17 15 12 11 11 11 9 9 11 9 9 7 5 4 3 4 4 4 6 7 8 8 7 8 8 9 7 11 12 12 9 8 8
11 13 9 7 1 2 8 15 10 3 6 9 13 16 17 17 17 17 14 12 12 12 11 9 8 8 8 7 4 3 3 4 4 5 4 4 5 6 6 7 7 8 7 7 9 10 12 10 9
15 7 9 6 4 7 3 7 5 5 7 8 13 11 9 10 10 12 11 11 10 10 7 8 7 6 5 5 5 6 6 6 2 3 2 2 3 5 5 5 6 6 5 6 6 4 7 10 10
4 7 6 4 6 5 9 7 3 2 6 13 8 1 2 4 7 8 8 8 9 8 6 5 4 4 3 4 4 4 6 4 5 4 5 5 5 5 4 3 5 5 4 5 5 5 5 5 7
13 10 7 4 2 7 9 9 7 6 10 4 4 3 5 5 7 7 6 6 6 5 3 3 5 4 3 2 2 4 6 6 5 5 5 5 4 4 5 3 4 5 5 5 5 6 7 7 7
6 13 4 4 5 7 4 7 7 6 10 8 5 7 4 6 7 6 5 5 5 5 2 1 4 5 4 4 4 4 5 6 7 7 6 6 5 4 5 4 5 5 6 7 6 6 7 7 7
11 9 4 8 6 5 4 8 2 12 9 4 7 6 6 5 3 4 4 4 3 1 2 3 4 4 4 4 5 4 5 4 5 6 6 6 5 5 4 6 6 7 7 6 6 6 5 6 5
7 8 1 1 2 2 6 6 9 10 12 6 5 3 2 1 2 3 4 4 4 3 4 5 5 6 6 6 6 6 5 6 7 7 7 6 6 6 6 6 7 7 7 7 7 6 7 6 6
3 9 4 1 4 6 5 6 8 6 10 4 7 4 4 2 3 3 1 4 4 5 4 5 6 7 6 7 6 6 7 7 8 8 9 9 8 7 6 7 7 7 7 7 7 6 6 7 5
5 5 3 4 3 3 5 4 6 13 9 11 8 4 3 4 5 3 0 3 5 5 6 6 6 7 8 7 7 8 8 8 8 8 9 9 8 8 8 8 8 8 8 7 7 7 7 7 6
7 8 9 4 4 4 3 7 0 5 8 6 4 5 7 6 5 3 5 6 6 5 5 6 6 8 8 7 8 9 9 9 10 10 9 8 9 8 9 9 9 9 9 8 8 8 6 7 7
Wind_Direction
149 153 167 201 215 227 136 154 141 152 162 108 119 212 176 24 345 36 129 112 142 149 150 161 151 154 153 157 150 146 142 136 130 124 118 111 103 98 90 87 84 82 79 96 100 93 89 89 79
149 156 213 234 240 200 140 142 181 152 106 126 121 134 165 93 79 111 143 153 150 148 153 154 146 150 151 162 162 162 153 142 134 125 116 110 104 105 99 97 89 78 54 56 110 108 99 90 81
155 229 238 231 226 207 150 168 145 125 133 157 132 353 125 108 110 139 94 151 150 149 151 131 146 146 151 154 182 182 164 156 139 130 121 116 100 102 97 111 103 94 79 51 104 129 112 92 84
170 177 160 243 172 102 125 155 154 147 180 201 164 134 131 33 136 125 139 152 154 148 150 133 143 151 153 158 178 206 164 146 134 140 135 127 116 106 92 125 98 110 93 66 34 95 113 105 86
187 202 181 197 137 114 139 150 158 159 145 151 187 141 122 138 114 135 143 156 155 150 150 153 150 156 161 163 173 159 146 148 154 163 160 155 150 150 149 137 128 120 98 95 43 35 50 77 74
170 253 195 188 154 128 138 158 165 160 152 135 167 146 131 136 154 149 149 156 156 154 158 153 160 164 169 175 178 186 198 174 174 195 187 176 174 174 174 180 187 183 180 204 136 52 31 32 36
210 208 182 169 149 152 154 166 188 165 157 159 133 146 110 175 160 160 157 156 165 166 173 175 179 178 178 186 189 193 174 181 181 207 242 201 176 182 190 194 196 199 204 207 207 201 212 233 250
230 194 153 170 175 157 155 167 210 178 143 115 224 161 157 168 159 158 158 162 173 177 185 183 188 187 187 183 193 196 201 201 205 229 260 206 181 190 200 207 212 223 226 222 218 215 222 235 243
286 199 186 167 175 146 156 170 160 87 146 165 149 300 51 142 154 160 167 168 178 186 193 192 190 197 198 196 182 198 210 211 217 222 231 203 219 209 210 219 205 228 240 237 229 223 226 235 239
295 231 177 153 154 161 166 172 159 182 167 170 156 112 136 151 164 172 179 183 190 196 198 199 201 201 205 203 203 210 204 212 212 214 215 219 228 231 246 253 219 240 242 247 249 248 244 235 259
30 349 151 140 146 171 158 161 154 174 190 190 176 153 158 167 182 188 197 194 195 196 200 209 209 210 210 210 208 209 213 216 219 220 218 223 227 226 223 239 225 233 212 241 222 230 234 245 255
145 45 327 117 142 153 169 141 170 194 80 6 154 159 164 180 189 199 203 198 194 198 205 204 208 212 217 221 215 221 217 219 222 220 217 219 221 229 236 236 239 237 239 240 238 242 244 244 248
27 30 27 35 128 131 140 166 176 196 141 74 150 163 181 188 196 203 210 218 213 218 209 209 207 211 214 218 225 229 231 226 233 228 221 221 228 232 235 237 238 239 238 237 240 242 243 243 247
358 29 45 35 110 113 160 146 205 192 171 147 169 182 188 197 199 206 214 221 222 228 224 217 217 219 219 221 221 224 230 236 237 238 232 225 234 237 239 240 240 241 237 240 240 243 241 245 246
339 203 57 69 48 95 144 173 218 134 185 181 186 187 197 204 203 219 219 225 226 230 230 226 223 220 224 229 232 232 228 229 235 239 237 236 233 239 241 246 245 244 235 238 236 241 240 246 245
225 241 203 106 354 50 234 209 198 152 196 196 193 205 208 213 221 232 241 239 235 240 233 230 222 226 228 232 232 232 236 231 232 237 240 237 238 239 241 244 245 247 238 234 233 234 231 226 226
302 210 185 255 59 342 235 227 74 149 234 220 216 229 237 249 236 242 237 244 245 241 242 239 231 234 232 233 234 236 239 237 241 238 239 243 240 241 242 248 251 251 245 239 237 236 236 239 227
193 211 203 221 51 207 209 258 174 45 275 266 272 267 265 264 257 251 256 247 248 245 250 249 242 237 235 238 236 235 236 234 238 241 243 248 249 245 245 249 254 250 250 244 234 236 233 245 245
144 201 239 329 67 290 242 262 271 294 278 268 264 271 267 261 270 270 267 267 263 260 253 247 244 234 214 209 219 231 232 225 233 242 248 252 250 251 251 257 264 258 246 244 242 240 240 240 248
183 207 226 248 58 279 279 269 277 266 257 256 268 266 263 268 267 266 273 280 270 270 268 253 241 232 216 220 228 245 241 235 254 228 236 246 253 254 252 255 256 250 250 249 243 239 242 248 238
209 214 208 251 279 173 294 266 239 251 247 252 255 253 260 266 283 289 291 289 289 273 261 252 240 229 222 225 226 236 252 253 248 234 245 247 268 267 269 267 260 247 238 247 248 242 234 241 237
215 206 205 195 244 254 347 281 227 255 268 256 251 245 276 293 290 288 292 289 290 293 296 256 237 220 216 213 229 237 250 258 271 287 282 269 272 276 274 279 280 279 263 247 250 277 261 256 258
225 172 189 210 239 284 221 261 219 309 266 246 257 50 77 324 303 298 310 314 316 307 287 246 216 201 195 215 252 271 270 282 286 277 279 271 260 254 274 288 293 281 279 276 273 254 234 238 253
133 117 80 75 157 246 228 239 243 205 241 273 119 12 338 331 319 317 319 306 315 330 316 199 194 198 208 236 236 251 268 281 280 273 274 263 256 249 243 257 269 276 271 265 267 265 257 254 248
182 166 144 195 210 252 144 222 283 262 247 254 305 316 339 340 341 343 356 349 341 342 341 179 210 213 213 236 251 271 280 282 276 276 273 274 263 251 253 247 254 262 271 276 270 256 252 247 245
179 195 188 213 205 221 173 234 219 232 263 260 279 275 300 291 335 13 6 349 338 272 240 219 220 240 239 250 255 250 252 259 268 269 272 271 268 268 264 256 261 271 273 271 272 271 270 273 262
169 206 112 109 127 263 225 233 273 257 262 253 238 223 124 174 12 14 5 359 335 290 235 230 228 236 236 246 248 249 258 258 262 263 262 260 262 263 264 266 271 270 274 275 275 266 263 254 254
210 150 157 222 207 242 232 261 247 195 220 164 159 129 174 199 167 148 13 346 322 297 276 249 248 257 266 261 258 262 258 253 259 262 261 261 265 262 261 262 263 266 268 271 265 259 255 248 238
162 181 185 177 208 237 269 240 219 225 155 159 145 183 182 199 214 165 345 316 301 294 286 280 265 265 263 259 264 263 263 261 260 260 262 262 268 258 253 251 255 256 257 253 258 262 265 253 244
232 217 185 189 193 243 334 256 354 220 173 148 178 214 230 240 250 275 290 289 303 297 292 296 288 276 276 280 274 271 274 271 265 263 263 263 261 260 258 253 250 250 250 248 246 245 235 240 234